Torna al catalogo

STARLINK-34428

AttivoComunicazioniVLEO
NORAD 64293·PAYLOAD·🇺🇸 United States

Lanciato Jun 8, 2025 da Vandenberg Space Force Base

Loading…

Prossimi Passaggi (prossime 24 ore)

TLE

AggiornatoSource: CelesTrak SupGP

Epoca: Sep 15, 2026, 02:54 UTC

1 64293C 25123C   26258.12131944 -.00047327  00000+0 -16051-2 0  2582
2 64293  69.9999  75.1052 0003288 272.0711 205.1952 15.30427382    18

Traccia STARLINK-34428 in tempo reale con AllMySat

Download on the App Store